TimeEDT,TemperatureF,Dew PointF,Humidity,Sea Level PressureIn,VisibilityMPH,Wind Direction,Wind SpeedMPH,Gust SpeedMPH,PrecipitationIn,Events,Conditions,WindDirDegrees,DateUTC
12:00 AM,44.6,35.6,71,29.80,10.0,West,8.1,26.5,0.00,Rain,Light Rain,260,2013-03-12 04:00:00
12:53 AM,43.0,35.1,74,29.80,10.0,WSW,10.4,-,0.00,,Overcast,250,2013-03-12 04:53:00
1:53 AM,42.1,35.1,76,29.81,10.0,WSW,8.1,-,0.00,,Overcast,250,2013-03-12 05:53:00
2:14 AM,41.0,33.8,76,29.82,10.0,WSW,6.9,16.1,N/A,,Overcast,250,2013-03-12 06:14:00
2:53 AM,41.0,34.0,76,29.84,10.0,West,9.2,-,N/A,,Overcast,260,2013-03-12 06:53:00
3:06 AM,39.2,33.8,81,29.84,10.0,West,9.2,-,N/A,,Overcast,260,2013-03-12 07:06:00
3:53 AM,39.0,33.1,79,29.85,10.0,West,8.1,-,N/A,,Overcast,270,2013-03-12 07:53:00
4:53 AM,37.9,32.0,79,29.86,10.0,West,9.2,-,N/A,,Overcast,270,2013-03-12 08:53:00
5:04 AM,37.4,30.2,75,29.85,10.0,West,11.5,-,N/A,,Overcast,260,2013-03-12 09:04:00
5:53 AM,37.0,32.0,82,29.88,10.0,West,6.9,-,N/A,,Overcast,260,2013-03-12 09:53:00
6:53 AM,36.0,30.9,82,29.90,8.0,West,11.5,19.6,0.00,,Overcast,260,2013-03-12 10:53:00
7:03 AM,35.6,32.0,87,29.90,8.0,WSW,9.2,-,0.00,,Overcast,250,2013-03-12 11:03:00
7:53 AM,36.0,30.9,82,29.92,10.0,WSW,6.9,-,0.00,,Overcast,240,2013-03-12 11:53:00
8:44 AM,33.8,30.2,87,29.92,5.0,West,10.4,-,0.00,Snow,Light Snow,280,2013-03-12 12:44:00
8:53 AM,34.0,32.0,92,29.94,9.0,West,6.9,-,0.00,,Overcast,270,2013-03-12 12:53:00
9:19 AM,35.6,32.0,87,29.93,10.0,WSW,10.4,-,N/A,,Overcast,250,2013-03-12 13:19:00
9:36 AM,35.6,30.2,81,29.94,10.0,West,6.9,-,N/A,,Overcast,260,2013-03-12 13:36:00
9:53 AM,36.0,30.0,79,29.95,10.0,West,9.2,-,N/A,,Overcast,260,2013-03-12 13:53:00
10:08 AM,35.6,30.2,81,29.95,10.0,WSW,9.2,-,N/A,,Overcast,240,2013-03-12 14:08:00
10:53 AM,35.1,28.9,78,29.96,10.0,WSW,9.2,-,N/A,,Overcast,240,2013-03-12 14:53:00
11:17 AM,35.6,28.4,75,29.95,10.0,North,-9999.0,-,N/A,,Overcast,0,2013-03-12 15:17:00
11:53 AM,35.1,30.0,82,29.97,10.0,WSW,10.4,-,N/A,,Overcast,240,2013-03-12 15:53:00
12:19 PM,35.6,30.2,81,29.95,10.0,West,10.4,17.3,N/A,,Overcast,260,2013-03-12 16:19:00
12:44 PM,37.4,30.2,75,29.95,10.0,WSW,12.7,18.4,N/A,,Overcast,240,2013-03-12 16:44:00
12:53 PM,37.0,30.0,76,29.96,10.0,West,10.4,-,N/A,,Overcast,260,2013-03-12 16:53:00
1:53 PM,37.9,30.0,73,29.97,10.0,West,5.8,-,N/A,,Overcast,260,2013-03-12 17:53:00
2:53 PM,37.9,28.0,68,29.96,10.0,WSW,13.8,19.6,N/A,,Overcast,240,2013-03-12 18:53:00
3:53 PM,37.0,28.0,70,29.96,10.0,West,11.5,-,N/A,,Overcast,270,2013-03-12 19:53:00
4:35 PM,37.4,28.4,70,29.95,10.0,West,11.5,19.6,N/A,,Overcast,260,2013-03-12 20:35:00
4:53 PM,37.9,28.0,68,29.97,10.0,West,11.5,19.6,N/A,,Overcast,260,2013-03-12 20:53:00
5:26 PM,37.4,28.4,70,29.95,10.0,WSW,12.7,24.2,N/A,,Overcast,250,2013-03-12 21:26:00
5:36 PM,37.4,28.4,70,29.96,10.0,WSW,11.5,-,N/A,,Overcast,250,2013-03-12 21:36:00
5:53 PM,37.9,28.0,68,29.98,10.0,WSW,11.5,-,N/A,,Overcast,240,2013-03-12 21:53:00
6:53 PM,37.0,27.0,67,30.00,10.0,WSW,8.1,17.3,N/A,,Overcast,250,2013-03-12 22:53:00
7:53 PM,37.0,28.0,70,30.01,10.0,WSW,5.8,-,N/A,,Overcast,250,2013-03-12 23:53:00
8:53 PM,37.0,28.0,70,30.02,10.0,SW,4.6,-,N/A,,Overcast,230,2013-03-13 00:53:00
9:53 PM,35.1,28.0,76,30.01,10.0,South,3.5,-,N/A,,Overcast,190,2013-03-13 01:53:00
10:53 PM,35.1,28.0,76,30.01,8.0,South,5.8,-,0.00,Snow,Light Snow,190,2013-03-13 02:53:00
11:42 PM,33.8,30.2,87,30.00,4.0,West,9.2,-,0.00,Snow,Light Snow,260,2013-03-13 03:42:00
11:46 PM,33.8,30.2,87,30.01,3.0,West,9.2,-,0.00,Snow,Light Snow,260,2013-03-13 03:46:00
11:49 PM,33.8,30.2,87,30.00,2.0,West,9.2,-,0.01,Snow,Light Snow,270,2013-03-13 03:49:00